Location: Stara Lesna
(49.1528°N, 20.2911°E)
Time: 10:29:18
(UTC+02:00)

IRIDIUM 103 - Pass Details

Date: 21 September 2019
Orbit: 776 x 779 km, 86.4° (Epoch: 13 October)

Event Time Altitude Azimuth Distance (km) Brightness Sun altitude
Exits shadow 03:52:10 53° 291° (WNW) 956 4.5 -24.1°
Drops below altitude 10° 03:57:01 10° 356° (N) 2,342 7.1 -23.5°
Sets 03:59:26 0° 1° (N) 3,274 8.0 -23.1°
